Regional Weather Roundup
Issued by NWS Midland/Odessa, TX

Skip options and go directly to product.
Home | Oldest Version | Next Version | Current Version | All | Text Only | Save Text | Print | Product List | Glossary On

Skip product version selection by date and time.   
625
ASUS44 KMAF 172302
RWRMAF
MIDLAND AREA WEATHER ROUNDUP
NATIONAL WEATHER SERVICE MIDLAND TX
600 PM CDT THU APR 17 2014

...IN SOUTHWEST TEXAS AND SOUTHEAST NEW MEXICO...

CITY           SKY/WX    TMP DP  RH WIND       PRES   REMARKS
ALPINE         SUNNY     73  28  19 NE10G20   30.16R
ANDREWS        FAIR      73  39  29 E7G16     30.08S
ARTESIA        SUNNY     70  32  24 NE5       30.09F
BIG SPRING     SUNNY     74  45  35 NE14G21   30.10R
CARLSBAD       SUNNY     75  29  18 VRB6      30.06F
DRYDEN           N/A     82  43  25 E12G18    29.97S
FORT STOCKTON  SUNNY     77  38  24 E7        30.04F
GUAD PASS      SUNNY     64  30  27 E24       30.14F
HOBBS          SUNNY     70  34  26 NE12      30.10S
MARFA          SUNNY     72  27  18 NE16      30.11F
MIDLAND AIRPK  SUNNY     75  40  29 NE12      30.07R
MIDLAND INTL   MOSUNNY   75  42  30 N12       30.06R
ODESSA         SUNNY     75  39  27 NE12G21   30.07R
PECOS          SUNNY     79  35  20 N12       30.02F
PRESIDIO       FAIR      88  23   9 NE12G21   29.93S
SEMINOLE       MOSUNNY   70  39  31 NE15      30.11R
SNYDER         MOSUNNY   59  48  67 N18       30.14R
WINK           SUNNY     79  35  20 NE8G18    30.03S
$$
...OTHER STATIONS IN TEXAS...

CITY           SKY/WX    TMP DP  RH WIND       PRES   REMARKS
ABILENE        CLOUDY    63  53  70 SE9       30.10S
AMARILLO       CLOUDY    48  36  63 NE9       30.21S
AUSTIN         DRIZZLE   64  59  83 CALM      30.08R
BROWNSVILLE    CLOUDY    71  66  84 NE14      29.97R
CORPUS CHRISTI CLOUDY    69  63  81 E20       30.02R
DALLAS FTW     LGT RAIN  60  56  86 NE7       30.14R FOG
DEL RIO        SUNNY     81  51  35 S6        29.96S
EL PASO        SUNNY     80  18  10 E7        30.01F
HOUSTON INT    PTSUNNY   68  55  63 E14       30.07R
LUBBOCK        PTSUNNY   62  41  46 NE8G20    30.15R
SAN ANGELO     CLOUDY    67  54  63 NE14      30.08R
SAN ANTONIO    DRIZZLE   65  61  87 E10       30.06R
WACO           CLOUDY    64  59  83 CALM      30.10R
WICHITA FALLS  NOT AVBL
$$
...OTHER LOCATIONS IN NEW MEXICO...

CITY           SKY/WX    TMP DP  RH WIND       PRES   REMARKS
ALAMAGORDO     MOSUNNY   75  19  12 N8        30.05F
ALBUQUERQUE    MOSUNNY   68  22  17 S10G17    30.09F
CANNON AFB     SUNNY     62  32  31 NE9       30.16R
CLOVIS         SUNNY     63  34  34 NE13G18   30.19R
HOLLOMAN AFB   MOSUNNY   77  19  11 CALM      30.03F
ROSWELL        SUNNY     72  29  20 NE8       30.09F
RUIDOSO        SUNNY     59  27  29 SE14G21   30.21S
SANTA FE       SUNNY     63  26  24 SE15G24   30.12F
TRUTH OR CONSE SUNNY     75  21  13 SE6       30.04F
TUCUMCARI      MOSUNNY   61  34  36 E12       30.16F
$$

USA.gov is the U.S. government's official web portal to all federal, state and local government web resources and services.